STARLINK-1350 (45535 NORAD) Tracking and Keplerian Element Data

This shows tracking and keplerian element data for the satellite.

Feedback or suggestion? Click here.




ElementValue
Catalog45535
NameSTARLINK-1350
Epoch Orbit1349
Epoch Day197.16667824
Epoch Year2020
RAAN10.132
Inclination53.0015
Eccentricity0.0001432
Argument of Perigee90.6544
Mean Anonmoly204.8703
Mean Motion15.05596273
Decay Rate-0.00035452
L11 45535U 20025E 20197.16667824 -.00035452 00000-0 -24251-2 0 9997
L22 45535 53.0015 10.1320 0001432 90.6544 204.8703 15.05596273 13497

Live tracking and technical data element details for STARLINK-1350 (NORAD 45535). STARLINK-1350 can be tracked NOW for your location showing map with azimuth and elevation plus other details from your city location.

Track the satellite on the map from your city or location and see movement details for azimuth, elevation, latitude, longitude, range, height, and movement on the map or in text.







IsCatalogInMostPopularTable: catalog: 45535, numindb: 15
Update: records affected: 1



GetName: 45535 STARLINK-1350

Hit Count: updated at: Thu, 16 Jul 2020 04:47:44 GMT